串田彗星

144P/Kushida (2024)

English version
Home page
Updated on December 1, 2023

---------------------------------------------------------------------

・ プロフィール

・ 写真集

・ 軌道要素

Epoch 2023 Sept. 13.0 TT = JDT 2460200.5
T 2024 Jan. 25.61061 TT                                 Rudenko
q   1.3988465            (2000.0)            P               Q
n   0.13135412     Peri.  216.32841     -0.15950798     -0.98530751
a   3.8327185      Node   242.92197     +0.92112401     -0.12630562
e   0.6350250      Incl.    3.93119     +0.35508838     -0.11496086
P   7.50
>From 3176 observations 1994 Jan. 7-2023 Aug. 20, mean residual 0".6.
     Nongravitational parameters A1 = +0.74, A2 = +0.0097.

・ 星図

・ 光度変化

        m1 =  7.5 + 5 logΔ +  30 log r(t - 30)  [   ,-39]  (              〜2023年12月17日)
        m1 = -5.5 + 5 logΔ + 100 log r(t - 20)  [-39, 52]  (2023年12月17日〜2024年 3月17日)
        m1 =  6.0 + 5 logΔ +  25 log r          [ 52,   ]  (2024年 3月17日〜              )

---------------------------------------------------------------------

軌道要素はM.P.E.C. 2023-Q150に掲載されたものです。
星図はステラナビゲータ Ver.10 (アストロアーツ) で作成したものです。
光度グラフはComet for Windowsで作成したものです。

---------------------------------------------------------------------

Copyright(C) Seiichi Yoshida (comet@aerith.net). All rights reserved.